#timestamp,LO_Frequency,Hit,StdDev 
1593464415.5,286047002.4,N
1593464435.4,286047000.2,N
1593464455.2,286047001.0,N
1593464475.0,286046999.9,N
1593464475.9,286046999.9,N
1593464495.8,286047001.2,N
1593464515.6,286047000.8,N
1593464535.4,286046998.1,N
1593464555.3,286047000.7,N
1593464575.1,286047002.8,N
1593464595.9,286047002.5,N
1593464615.7,286047002.6,N
1593464635.5,286047001.9,N
1593464655.4,286047001.6,N
1593464675.2,286047001.6,N
1593464695.0,286047002.3,N
1593464695.9,286047002.3,N
1593464715.8,286047000.0,N
1593464735.6,286046999.8,N
1593464755.5,286047000.1,N
1593464775.3,286046999.8,N
1593464795.1,286047000.2,N
1593464815.9,286046999.9,N
1593464835.7,286047000.3,N
1593464855.5,286047000.5,N
1593464875.4,286047000.4,N
1593464895.2,286047000.1,N
1593464915.1,286047002.6,N
1593464916.0,286047002.6,N
1593464935.8,286047002.5,N
1593464955.6,286047001.8,N
1593464975.5,286047004.4,Y
1593464995.3,286047002.8,P
1593465015.1,286047000.5,N
1593465035.9,286047000.9,N
1593465055.7,286046998.7,N
1593465075.6,286047000.8,N
1593465095.4,286047000.7,N
1593465115.2,286047001.0,N
1593465135.1,286047000.6,N
1593465136.0,286047000.6,N
1593465155.8,286047000.9,N
1593465175.6,286046998.5,N
1593465195.5,286046998.6,N
1593465215.3,286047000.4,N
1593465235.2,286046999.9,N
1593465255.9,286047000.5,N
1593465275.7,286046999.0,N
1593465295.6,286046998.1,N
1593465315.4,286047000.2,N
1593465335.2,286047000.6,N
1593465355.1,286046999.3,N
1593465356.0,286046999.3,N
1593465375.8,286046997.4,N
1593465395.6,286046997.3,N
1593465415.5,286046998.8,N
1593465435.3,286047000.4,N
1593465455.2,286047000.3,N
1593465475.9,286046999.9,N
1593465495.7,286047000.9,N
1593465515.6,286047000.3,N
1593465535.4,286046999.7,N
1593465555.3,286047002.5,N
1593465575.1,286046999.9,N
1593465576.0,286046999.9,N
1593465595.8,286047000.9,N
1593465615.7,286047000.3,N
1593465635.5,286047002.5,N
1593465655.3,286046999.7,N
1593465675.2,286047002.5,N
1593465695.0,286047001.3,N
1593465695.9,286047001.3,N
1593465715.8,286047002.0,N
1593465735.6,286047002.7,N
1593465755.4,286047002.7,N
1593465775.3,286047001.5,N
1593465795.1,286047001.6,N
1593465815.8,286047001.3,N
1593465835.7,286046999.9,N
1593465855.5,286047001.1,N
1593465875.4,286046999.9,N
1593465895.2,286046999.8,N
1593465915.0,286046999.9,N
1593465915.9,286046999.9,N
1593465935.8,286047002.4,N
1593465955.6,286046999.8,N
1593465975.5,286047002.8,N
1593465995.3,286046999.8,N
1593466015.1,286047002.7,N
1593466035.9,286047001.5,N
1593466055.7,286047002.1,N
1593466075.5,286047002.6,N
1593466095.4,286047001.6,N
1593466115.2,286047001.4,N
1593466135.1,286047001.8,N
1593466136.0,286047001.8,N
1593466155.8,286047001.8,N
1593466175.6,286047004.3,Y
1593466195.5,286047002.8,P
1593466215.3,286047000.5,N
1593466235.2,286047000.9,N
1593466255.9,286047000.5,N
1593466275.7,286047000.0,N
1593466295.6,286047001.0,N
1593466315.4,286047000.4,N
1593466335.3,286047002.6,Y
1593466355.1,286047000.2,P
1593466356.0,286047000.2,N
1593466375.8,286047000.0,N
1593466395.7,286047000.5,N
1593466415.5,286046999.9,N
1593466435.4,286047001.1,Y
1593466455.2,286047001.0,P
1593466475.0,286047000.5,N
1593466475.9,286047000.5,N
1593466495.8,286047000.3,N
1593466515.6,286046999.8,N
1593466535.4,286046999.7,N
1593466555.3,286047000.2,N
1593466575.1,286047000.2,N
1593466595.9,286046998.1,Y
1593466615.7,286047000.7,P
1593466635.5,286047000.8,P
1593466655.4,286047000.4,N
1593466675.2,286047000.4,N
1593466695.1,286047000.1,N
1593466696.0,286047000.1,N
1593466715.8,286047002.4,Y
1593466735.6,286046999.9,P
1593466755.5,286047000.6,N
1593466775.3,286047002.7,P
1593466795.1,286047002.6,N
1593466845.9,286047002.2,E
1593466855.8,286047002.1,N
1593466875.7,286047000.4,P
1593466895.5,286046999.7,N
1593466915.3,286047000.8,N
1593466935.2,286046998.9,N
1593466955.0,286046999.3,N
1593466955.9,286046999.3,N
1593466975.8,286046999.3,N
1593466995.6,286046999.5,N
1593467015.4,286046999.5,N
1593467035.3,286046999.1,N
1593467055.1,286046998.8,N
1593467075.9,286046997.1,Y
1593467095.7,286046995.0,P
1593467115.5,286046995.3,N
1593467135.4,286046995.3,N
1593467155.2,286046996.8,N
1593467175.0,286046995.4,N
1593467176.0,286046995.4,N
1593467195.8,286046996.5,N
1593467215.6,286046998.3,N
1593467235.5,286046998.5,N
1593467255.3,286046999.2,N
1593467275.1,286046999.3,N
1593467295.9,286046998.9,N
1593467315.7,286046997.7,N
1593467335.5,286046997.9,N
1593467355.4,286046997.5,N
1593467375.2,286046996.5,N
1593467395.1,286046998.8,N
1593467396.0,286046998.8,N
1593467415.8,286046998.7,N
1593467435.6,286046998.9,N
1593467455.5,286046999.4,N
1593467475.3,286046999.1,N
1593467495.1,286047000.7,N
1593467515.9,286047000.8,N
1593467535.7,286046999.3,N
1593467555.6,286047001.1,N
1593467575.4,286047000.6,N
1593467595.2,286046999.7,N
1593467615.1,286047000.4,N
1593467616.0,286047000.4,N
1593467635.8,286047000.1,N
1593467655.7,286046999.8,N
1593467675.5,286046998.6,N
1593467695.3,286046999.0,N
1593467715.2,286046998.5,N
1593467735.0,286047001.1,N
1593467735.9,286047001.1,N
1593467755.8,286047000.4,N
1593467775.6,286047000.2,N
1593467795.4,286047002.8,N
1593467815.3,286047001.0,N
1593467835.1,286047001.2,N
1593467855.8,286046999.3,N
1593467875.7,286046998.6,N
1593467895.5,286046998.7,N
1593467915.3,286046999.4,N
1593467935.2,286046998.9,N
1593467955.0,286046997.7,N
1593467955.9,286046997.7,N
1593467975.8,286046997.7,N
1593467995.6,286046997.5,N
